Location: Bowman Observatory
(41.0326°N, 73.6210°W)
Time: 15:55:02
(UTC-04:00)

Cosmos 2298 Rocket - Visible Passes

Search period start: 26 July 2016 00:00
Search period end: 05 August 2016 00:00
Orbit: 777 x 783 km, 74.0° (Epoch: 26 July)

Date Brightness Start Highest point End Pass type
(mag) Time Alt. Az. Time Alt. Az. Time Alt. Az.
26 Jul 4.8 02:41:01 10° N 02:46:11 50° ENE 02:49:09 24° SE visible
26 Jul 5.4 04:24:21 10° NW 04:28:04 20° W 04:29:35 17° WSW visible
27 Jul 5.5 02:07:51 10° N 02:12:38 33° ENE 02:15:18 21° ESE visible
27 Jul 4.8 03:50:15 10° NW 03:54:51 31° W 03:55:44 29° WSW visible
28 Jul 6.1 01:34:54 10° N 01:38:59 22° ENE 01:41:35 16° E visible
28 Jul 4.2 03:16:29 10° NNW 03:21:35 49° WSW 03:22:03 48° WSW visible
29 Jul 6.5 01:02:19 10° NNE 01:05:15 15° NE 01:08:00 10° E visible
29 Jul 3.8 02:42:55 10° NNW 02:48:14 79° WSW 02:48:28 77° SW visible
30 Jul 4.2 02:09:30 10° NNW 02:14:48 66° ENE 02:14:58 66° E visible
30 Jul 5.9 03:53:39 10° WNW 03:55:26 14° W 03:55:26 14° W visible
31 Jul 4.9 01:36:15 10° N 01:41:17 42° ENE 01:41:32 42° ENE visible
31 Jul 5.5 03:19:11 10° NW 03:22:01 21° WNW 03:22:01 21° WNW visible
01 Aug 5.5 01:03:11 10° N 01:07:43 28° ENE 01:08:12 27° ENE visible
01 Aug 5.1 02:45:14 10° NW 02:48:41 31° WNW 02:48:41 31° WNW visible
02 Aug 6.0 00:30:20 10° NNE 00:34:01 19° ENE 00:34:54 18° ENE visible
02 Aug 4.7 02:11:33 10° NNW 02:15:23 44° NW 02:15:23 44° NW visible
02 Aug 6.4 23:58:03 10° NNE 00:00:14 12° NE 00:01:38 11° ENE visible
03 Aug 4.6 01:38:03 10° NNW 01:42:08 54° NNW 01:42:08 54° NNW visible
04 Aug 4.8 01:04:43 10° N 01:08:55 47° NNE 01:08:55 47° NNE visible
04 Aug 6.2 02:48:16 10° NW 02:49:24 14° WNW 02:49:24 14° WNW visible
